You are here:
  • Home »
  • Tender »
  • Open Tender Enquiry

Open Tender Enquiry

Sl.No. Enquiry No. Date Due on Short Description
15601 2/ PE210199/1 Corrigendum-I 30.04.2021 08.06.2021 Drive & riven sheave for Flsmidth jaw crusher
15602 1/ PE210198/1 Corrigendum-II 18.05.2021 08.06.2021 Unbalnce motor exciter
15603 2/ PE210203/1 Corrigendum-II 21.05.2021 08.06.2021 Plummer blocker
15604 2/ PE210182/1 Corrigendum-II 21.05.2021 08.06.2021 Lump breaker
15605 2/ PE210348/1 31/05/2021 08/07/2021 PLUG VALVE
15606 2/ PE210385/8 27/05/2021 12/07/2021 SPARES FOR BDK MAKE VALVE
15607 2/ PE210338/8 27/05/2021 12/07/2021 TRUNNION LINER
15608 2/ PE210300/1 27/05/2021 12/07/2021 KETTLE ELEMENT
15609 2/ PE210140/7 27/05/2021 12/07/2021 SWAGELOCK CONNECTOR
15610 2/ PE210141/7 27/05/2021 12/07/2021 PATSON
15611 2/ PE210298/1 27/05/2021 12/07/2021 SPARE CARD FOR DIGITAL HANGING SCALE
15612 2/ PE210301/1 27/05/2021 12/07/2021 METALLIC ELECTRODE
15613 2/ PE210279/8 27/05/2021 12/07/2021 SOLENOID VALVE
15614 2/ PE210299/1 27/05/2021 12/07/2021 PVC GLOVES
15615 2/ PE210421/8 27/05/2021 12/07/2021 GEAR BOX
15616 2/ PE210416/8 31/05/2021 05/07/2021 DIGITAL BENCH METER
15617 1/ PE200344/1 Corrigendum-I Tender opened Tender cancelled 160 KW INDUCTION MOTOR
15618 2/ PE210281/8 31/05/2021 12/07/2021 SIDE PLATE
15619 2/ PE210235/1 31/05/2021 08/07/2021 HDPE PIPE
15620 2/ PE210299/8 31/05/2021 12/07/2021 JAW PLATE
15621 2/ PE210298/8 31/05/2021 12/07/2021 NBC SUIT
15622 2/ PE210338/1 31/05/2021 08/07/2021 BALL VALVE
15623 2/ PE210289/8 31/05/2021 13/07/2021 GLOVE VALVE 50 NB
15624 2/ PE210282/8 31/05/2021 12/07/2021 DIAPHRAGM VALVE
15625 2/ PE210306/8 31/05/2021 08/072021 MSRL PIPE
15626 2/ PE210376/1 31/05/2021 13/07/2021 HDPE PIPE
15627 2/ PE210462/8 01/06/2021 13/07/2021 POLYTHENE BAG
15628 2/ PE210090/7 31/05/2021 08/07/2021 MULTI GAS DETECTOR
15629 2/ PE210229/1 Corrigendum-I 21.05.2021 14.06.2021 Temparary ID Cards Visitor gate pass
15630 2/ PE210214/1 Corrigendum-1 07.05.2021 14.06.2021 Single roll return idler
15631 1/ PE210225/1 Corrigendum-1 10.05.2021 14.06.2021 Office Furniture
15632 Corrigendum 3/ PE210121/7 08/04/2021 05/07/2021 Electric Wire Rope Hoist
15633 2/ PE200365/1 04/06/2021 06/07/2021 FILTER PAPERS
15634 2/ PE200690/8 04/06/2021 06/07/2021 FILTER PAPERS
15635 2- PE210293-1 25/05/2021 29.06.2021 RAKE ARM BLADE NEUTRAL THICKNER
15636 1- PE210285-1 25/05/2021 29.06.2021 ANGLE RING
15637 1- PE210262-1 24/05/2021 22.06.2021 SPARES OF SEW EURO DRIVE GEAR BOXES
15638 1- PE210253-1 7/05/2021 6.07.2021 HBF
15639 2- PE210283-1 25/05/2021 22.06.2021 BEARRING BUSH FOR SCREW CONVEYOUS
15640 1- PE210294-1 25/05/2021 29.06.2021 RUBBER SEALS FOR HBF CLOTH RETURN ROLLERS
15641 2- PE210286-1 25/05/2021 29.06.2021 HBF
15644 Corrigendum to 1/ PE210131/7 05.05.2021 22.06.2021 Volt Meter
15645 1/ PE210278/1 26.05.2021 05.07.2021 Casing of Ventilation Fan
15646 1/ PE210347/1 26.05.2021 05.07.2021 Lock Nut
15647 1/ PE210349/1 26.05.2021 05.07.2021 Motor Cooling Fan
15648 1/ PE210350/1 26.05.2021 05.07.2021 Winding Rope
15649 2/ PE210360/8 07/06/2021 07/07/2021 HEAD PULLEY
15650 3/ PE210006/7 07/06/2021 19/07/2021 Battery Terminal
15651 3/ PE210150/7 07/06/2021 19/07/2021 Rubber Spider
15652 3/ PE210385/1 07/06/2021 19/07/2021 Alternator
15653 3/ PE210460/8 07/06/2021 19/07/2021 Cradle & Key
15654 3/ PE210465/8 07/06/2021 19/07/2021 Bearing
15655 2/ PE210386/8 08/06/2021 06/07/2021 ASSEMBLY
15656 2/ PE210305/8 03/06/2021 20/07/2021 SPR. FOR KIRLOSKAR MAKE AIR COMPRESSOR
15657 2/ PE210307/8 03/06/2021 20/07/2021 HEPA FILTER BOX TYPE
15658 2/ PE210308/8 03/06/2021 19/07/2021 NYLON BRAIDED PVC HOSE PIPE
15659 2/ PE210310/8 03/06/2021 19/07/2021 ECCENTRIC BUSHING THROW
15660 2/ PE210335/1 01.06.2021 18.06.2021 Ammonia compressor spares ,Model-KC-09
15661 2/ PE210352/8 09/06/2021 12/07/2021 SUBMERSIBLE PUMP
15662 Corrigendum to 3/ PE210409/8 03/05/2021 28/06/2021 Spares for Crane
15663 1/ PE210217/1 Corrigendum-III 08.06.2021 15.06.2021 Mingle modular table, Revolving chair, Visiter premierchair,
15664 2/ PE210305/1 08/06/2021 19/07/2021 SPARE CI VALVE BODY
15665 2/ PE210074/1 08/06/2021 19/07/2021 EMERGENCY RADIATION KIT (RAD)
15666 2/ PE210304/1 08/06/2021 19/07/2021 SPARE FOR DOUBLE DECK SCREEN
15667 2/ PE210407/1 08/06/2021 13/07/2021 NEEDLE FELT FILTER CLOTH
15668 2/ PE210408/1 08/06/2021 13/07/2021 NYLON STRING
15669 2/ PE210361/8 10/06/2021 19/07/2021 SPARES FOR PNEUMATIC MOTOR
15670 2/ PE210415/1 09/06/2021 14/07/2021 DRY POWDER FLOCCULATING AGENT (GUAR GUM)
15671 2/ PE210213/1 Corrigendum-I 18.05.2021 22.06.2021 PH Electrodes,
15672 1/ PE210222/1 Corrigendum-I 18.05.2021 22.06.2021 Multifunction printer
15673 3/ PE210149new/7 11/06/2021 14/07/2021 Core Lifter
15674 2/ PE210344new/1 09/06/2021 13/07/2021 CHEMICALS FOR H.P.UNIT
15675 2/ PE210342new/1 09/06/2021 13/07/2021 ENERGY REGULATOR
15676 2/ PE210341new/1 09/06/2021 13/07/2021 NETWORK VIDEO RECORDER
15677 2/ PE210361new/1 09/06/2021 13/07/2021 VALVE POSITIONER
15678 2/ PE210345new/1 09/06/2021 13/07/2021 FILTER PAPER
15679 2/ PE210355new/1 09/06/2021 13/07/2021 SPARE PCB CARD
15680 2/ PE210356new/1 09/06/2021 13/07/2021 AIR BREAK SWITCH
15681 2/ PE210343new/1 09/06/2021 13/07/2021 FLOAT ASSEMBLY FOR BOILER
15682 2/ PE210340new/1 09/06/2021 13/07/2021 AIR COMPRESSOR
15683 2/ PE210420new/8 09/06/2021 13/07/2021 WORM GEAR BOX
15684 2/ PE210303new/1 10/06/2021 14/07/2021 DIAPHRAGM VALVE